Location: Roy
(47.3334°N, 108.9587°W)
Time: 06:52:31
(UTC+00:00)

N. Korean satellite - Pass Details

Date: 30 January 2022
Orbit: 438 x 478 km, 97.3° (Epoch: 21 May)

Event Time Altitude Azimuth Distance (km) Brightness Sun altitude
Rises 11:43:14 0° 25° (NNE) 2,636 10.7 -30.7°
Reaches altitude 10° 11:45:44 10° 41° (NE) 1,742 9.9 -30.3°
Maximum altitude 11:48:41 22° 93° (E) 1,169 9.1 -29.8°
Drops below altitude 10° 11:51:35 10° 145° (SE) 1,716 9.6 -29.3°
Sets 11:54:00 0° 161° (SSE) 2,586 10.4 -28.9°
